TimeCDT,TemperatureF,Dew PointF,Humidity,Sea Level PressureIn,VisibilityMPH,Wind Direction,Wind SpeedMPH,Gust SpeedMPH,PrecipitationIn,Events,Conditions,WindDirDegrees,DateUTC
12:15 AM,67.8,66.4,95,29.79,5.0,North,-9999.0,-,N/A,,Clear,0,2013-06-27 05:15:00
12:35 AM,67.5,65.5,93,29.78,5.0,North,-9999.0,-,N/A,,Clear,0,2013-06-27 05:35:00
12:55 AM,67.3,66.0,96,29.78,3.0,North,-9999.0,-,N/A,,Clear,0,2013-06-27 05:55:00
1:15 AM,66.0,64.9,96,29.78,1.0,North,-9999.0,-,N/A,,Mist,0,2013-06-27 06:15:00
1:35 AM,66.4,65.3,96,29.79,3.0,North,-9999.0,-,N/A,,Clear,0,2013-06-27 06:35:00
1:55 AM,65.3,64.2,96,29.78,0.5,North,-9999.0,-,N/A,Fog,Fog,0,2013-06-27 06:55:00
2:15 AM,64.8,63.9,97,29.78,4.0,North,-9999.0,-,N/A,,Clear,0,2013-06-27 07:15:00
2:35 AM,64.8,63.9,97,29.78,1.2,North,-9999.0,-,N/A,,Mist,0,2013-06-27 07:35:00
2:55 AM,64.4,63.5,97,29.78,0.2,North,-9999.0,-,N/A,Fog,Fog,0,2013-06-27 07:55:00
3:15 AM,65.3,64.6,98,29.77,2.5,North,-9999.0,-,N/A,,Clear,0,2013-06-27 08:15:00
3:35 AM,64.2,63.3,97,29.79,0.2,North,-9999.0,-,N/A,Fog,Fog,0,2013-06-27 08:35:00
3:55 AM,64.4,63.5,97,29.78,1.5,North,-9999.0,-,N/A,,Mist,0,2013-06-27 08:55:00
4:15 AM,65.7,64.9,98,29.79,2.0,North,-9999.0,-,N/A,,Clear,0,2013-06-27 09:15:00
4:35 AM,64.4,63.7,98,29.79,1.8,North,-9999.0,-,N/A,,Mist,0,2013-06-27 09:35:00
4:55 AM,65.7,64.9,98,29.79,2.0,North,-9999.0,-,N/A,,Clear,0,2013-06-27 09:55:00
5:15 AM,66.0,65.1,97,29.80,1.8,North,-9999.0,-,N/A,,Mist,0,2013-06-27 10:15:00
5:35 AM,65.8,64.9,97,29.80,2.0,North,-9999.0,-,N/A,,Clear,0,2013-06-27 10:35:00
5:55 AM,66.6,65.5,96,29.80,2.0,North,-9999.0,-,N/A,,Clear,0,2013-06-27 10:55:00
6:15 AM,67.3,65.8,95,29.80,1.5,North,-9999.0,-,N/A,,Mist,0,2013-06-27 11:15:00
6:35 AM,69.3,67.1,93,29.80,2.0,North,-9999.0,-,N/A,,Clear,0,2013-06-27 11:35:00
6:55 AM,70.5,67.6,91,29.81,4.0,North,-9999.0,-,N/A,,Mostly Cloudy,0,2013-06-27 11:55:00
7:15 AM,71.2,68.0,89,29.81,5.0,North,-9999.0,-,N/A,,Mostly Cloudy,0,2013-06-27 12:15:00
7:35 AM,72.9,68.5,86,29.81,7.0,North,-9999.0,-,N/A,,Scattered Clouds,0,2013-06-27 12:35:00
7:55 AM,73.8,68.7,84,29.81,10.0,North,-9999.0,-,N/A,,Clear,0,2013-06-27 12:55:00
8:15 AM,75.9,69.3,80,29.80,10.0,North,-9999.0,-,N/A,,Clear,0,2013-06-27 13:15:00
8:35 AM,77.5,70.2,78,29.80,10.0,North,-9999.0,-,N/A,,Clear,0,2013-06-27 13:35:00
8:55 AM,77.7,70.9,79,29.81,10.0,North,-9999.0,-,N/A,,Clear,0,2013-06-27 13:55:00
9:15 AM,78.8,71.2,78,29.81,10.0,North,-9999.0,-,N/A,,Clear,0,2013-06-27 14:15:00
9:35 AM,79.7,71.6,76,29.81,10.0,North,-9999.0,-,N/A,,Clear,0,2013-06-27 14:35:00
9:55 AM,80.8,72.0,74,29.81,10.0,North,-9999.0,-,N/A,,Clear,0,2013-06-27 14:55:00
10:15 AM,81.7,71.8,72,29.80,-9999.0,North,-9999.0,-,N/A,,Unknown,0,2013-06-27 15:15:00
10:35 AM,82.6,71.2,68,29.80,10.0,North,-9999.0,-,N/A,,Clear,0,2013-06-27 15:35:00
10:55 AM,83.8,71.8,67,29.80,10.0,WNW,8.1,-,N/A,,Clear,290,2013-06-27 15:55:00
11:15 AM,84.0,71.4,66,29.80,10.0,WNW,4.6,-,N/A,,Scattered Clouds,300,2013-06-27 16:15:00
11:35 AM,83.8,70.0,63,29.80,10.0,West,10.4,17.3,N/A,,Scattered Clouds,280,2013-06-27 16:35:00
11:55 AM,84.9,68.4,57,29.80,10.0,WNW,5.8,17.3,N/A,,Scattered Clouds,300,2013-06-27 16:55:00
12:15 PM,85.1,68.9,58,29.80,10.0,NW,8.1,-,N/A,,Clear,320,2013-06-27 17:15:00
12:35 PM,85.5,68.4,56,29.80,10.0,WNW,9.2,-,N/A,,Clear,290,2013-06-27 17:35:00
12:55 PM,86.0,68.5,56,29.80,10.0,NW,8.1,-,N/A,,Clear,320,2013-06-27 17:55:00
1:15 PM,86.2,67.3,53,29.81,10.0,West,12.7,18.4,N/A,,Clear,280,2013-06-27 18:15:00
1:35 PM,86.4,68.0,54,29.81,10.0,NW,4.6,16.1,N/A,,Clear,320,2013-06-27 18:35:00
1:55 PM,86.9,66.7,51,29.81,10.0,West,11.5,18.4,N/A,,Clear,280,2013-06-27 18:55:00
2:15 PM,87.6,66.2,49,29.80,10.0,West,8.1,-,N/A,,Clear,270,2013-06-27 19:15:00
2:35 PM,88.0,67.3,50,29.79,10.0,West,8.1,-,N/A,,Clear,270,2013-06-27 19:35:00
2:55 PM,88.9,65.7,46,29.79,10.0,WNW,9.2,16.1,N/A,,Clear,290,2013-06-27 19:55:00
3:15 PM,88.7,65.3,46,29.78,10.0,West,12.7,18.4,N/A,,Clear,280,2013-06-27 20:15:00
3:35 PM,89.1,64.6,44,29.77,10.0,West,12.7,18.4,N/A,,Clear,270,2013-06-27 20:35:00
3:55 PM,88.9,64.0,43,29.77,10.0,West,12.7,18.4,N/A,,Clear,280,2013-06-27 20:55:00
4:15 PM,88.2,65.3,47,29.76,10.0,West,12.7,24.2,N/A,,Scattered Clouds,260,2013-06-27 21:15:00
4:35 PM,88.0,64.4,45,29.75,10.0,West,12.7,19.6,N/A,,Scattered Clouds,270,2013-06-27 21:35:00
4:55 PM,87.8,64.0,45,29.73,10.0,West,13.8,23.0,N/A,,Scattered Clouds,270,2013-06-27 21:55:00
5:15 PM,87.8,64.8,46,29.72,10.0,West,10.4,21.9,N/A,,Clear,260,2013-06-27 22:15:00
5:35 PM,87.8,66.6,49,29.71,10.0,West,9.2,17.3,N/A,,Clear,260,2013-06-27 22:35:00
5:55 PM,87.1,66.2,50,29.71,10.0,West,9.2,19.6,N/A,,Clear,260,2013-06-27 22:55:00
6:15 PM,86.5,66.6,51,29.71,10.0,West,12.7,18.4,N/A,,Scattered Clouds,260,2013-06-27 23:15:00
6:35 PM,86.4,65.1,49,29.71,10.0,WNW,10.4,21.9,N/A,,Scattered Clouds,290,2013-06-27 23:35:00
6:55 PM,85.1,64.4,50,29.72,10.0,WNW,6.9,16.1,N/A,,Clear,290,2013-06-27 23:55:00
7:15 PM,84.2,66.0,54,29.72,10.0,WNW,5.8,-,N/A,,Scattered Clouds,290,2013-06-28 00:15:00
7:35 PM,83.8,66.9,57,29.72,10.0,Calm,Calm,-,N/A,,Scattered Clouds,0,2013-06-28 00:35:00
7:55 PM,82.8,60.3,46,29.72,10.0,NW,6.9,-,N/A,,Clear,310,2013-06-28 00:55:00
8:15 PM,81.7,58.8,46,29.73,10.0,NW,10.4,-,N/A,,Clear,310,2013-06-28 01:15:00
8:35 PM,80.6,58.6,47,29.73,10.0,WNW,3.5,-,N/A,,Clear,300,2013-06-28 01:35:00
8:55 PM,79.2,59.7,51,29.73,10.0,Calm,Calm,-,N/A,,Clear,0,2013-06-28 01:55:00
9:15 PM,77.9,61.0,56,29.73,10.0,WNW,4.6,-,N/A,,Clear,290,2013-06-28 02:15:00
9:35 PM,77.0,60.8,57,29.74,10.0,West,5.8,-,N/A,,Clear,280,2013-06-28 02:35:00
9:55 PM,76.3,60.4,58,29.74,10.0,West,5.8,-,N/A,,Clear,280,2013-06-28 02:55:00
10:15 PM,75.2,60.6,60,29.74,10.0,WNW,4.6,-,N/A,,Clear,290,2013-06-28 03:15:00
10:35 PM,74.1,60.8,63,29.74,10.0,WNW,4.6,-,N/A,,Clear,290,2013-06-28 03:35:00
10:55 PM,73.6,61.0,65,29.74,10.0,WNW,4.6,-,N/A,,Clear,290,2013-06-28 03:55:00
11:15 PM,72.7,61.3,67,29.74,10.0,West,5.8,-,N/A,,Clear,280,2013-06-28 04:15:00
11:35 PM,72.0,61.3,69,29.74,10.0,West,4.6,-,N/A,,Clear,270,2013-06-28 04:35:00
11:55 PM,71.2,61.2,70,29.74,10.0,West,5.8,-,N/A,,Clear,270,2013-06-28 04:55:00